COSMOS 2071

Satellite information

Favourite Embed

Satellite Type and Status

PAYLOADIN ORBIT

Key statistics

Satellite COSMOS 2071 at a glance.

Uptime

13036

Days in orbit

Revolutions

≈ 12.5

Per day

Orbit

LEO

Low Earth Orbit

Inclination

74.0

Latest

Satellite identification and parameters

Extended collection of information and parameters for COSMOS 2071.

Object identification

Identified? True

Debris? False

Object name: COSMOS 2071

International designator: 1990-029H

Object number (NORAD): 20556

Object ID (CCSDS): 20556

Country: COMMONWEALTH OF INDEPENDENT STATES (CIS)

Current information (Y/N): Y

RCS size: MEDIUM

Orbital parameters

Period: 115.113 minutes

Inclination: 73.9796 deg

SMA: 7838.705 km

Apoapsis: 1463.033 km

Periapsis: 1458.107 km

RAAN: 131.5857 deg

Eccentricy: 0.00031417

Argument of periapsis: 330.3614 deg

Mean anomaly: 202.1712 deg

Mean motion: 12.50939407 rev/day

Mean motion (dot): 0.00000007 rev/day2

B* drag term: 0.00015084978 1/REarth

Two-line elements (TLE)

Creation date: Dec. 12, 2025, 10:14 a.m.

Reference frame: TEME

Reference center: EARTH

Epoch: Dec. 12, 2025, 4:24 a.m. UTC

TLE line 0: 0 COSMOS 2071

TLE line 1: 1 20556U 90029H 25346.18351323 .00000007 00000-0 15085-3 0 9993

TLE line 2: 2 20556 73.9796 131.5857 0003142 330.3614 202.1712 12.50939407629542

Live tracking on map

Real-time ground track for satellite COSMOS 2071.

In-orbit conjunctions

There are no conjunctions computed for COSMOS 2071, at the moment. Check back to stay up to date, as we update our databases every day.

Go to all conjunctions

Associated space launch

Military communications satellites

COSMOS 2071 was lifted into orbit during the mission ‘Kosmos-3M | Strela-1M 345-352’, on board a Kosmos-3M space rocket.

The launch took place on April 6, 1990, 3:13 a.m. from 133/3 (133L).

For more information about the launch, click the button.

Launch to space Kosmos-3M | Strela-1M 345-352
Kosmos-3M | Strela-1M 345-352

Agency: N/A

Status: Launch Successful

Launch date: April 6, 1990, 3:13 a.m. UTC

Rocket: Kosmos-3M

Launch pad: 133/3 (133L)

Location: Plesetsk Cosmodrome, Russian Federation

...

Latest news about this satellite

There are no fresh news available about this satellite. Check back as we update our databases every day.


Newsletter sign-up

Weekly statistics, charts and insights to help you stay on top of the space industry.